Location: Ostrava
(49.8330°N, 18.2830°E)
Time: 12:54:46
(UTC+01:00)

Transit 2A - All Passes

Search period start: 12 December 2017 00:00
Search period end: 22 December 2017 00:00
Orbit: 591 x 968 km, 66.7° (Epoch: 11 December)

Date Brightness Start Highest point End Pass type
(mag) Time Alt. Az. Time Alt. Az. Time Alt. Az.
12 Dec - 00:17:03 10° NW 00:22:25 30° WSW 00:27:26 10° S night (unlit)
12 Dec - 13:18:14 10° SSE 13:22:42 22° ESE 13:27:22 10° ENE daylight
12 Dec - 14:59:08 10° SW 15:05:14 86° NW 15:11:42 10° NE daylight
12 Dec - 16:44:02 10° W 16:49:26 29° NNW 16:54:57 10° NNE visible
12 Dec - 18:30:45 10° NW 18:34:51 17° N 18:38:57 10° NE visible
12 Dec - 20:15:45 10° NNW 20:20:33 21° NNE 20:25:14 10° ENE visible
12 Dec - 21:59:07 10° NNW 22:05:20 51° NE 22:11:10 10° ESE visible
12 Dec - 23:42:43 10° NW 23:48:33 41° WSW 23:53:58 10° S night (unlit)
13 Dec - 12:45:29 10° SE 12:48:58 16° ESE 12:52:34 10° ENE daylight
13 Dec - 14:25:08 10° SSW 14:31:11 74° ESE 14:37:35 10° NE daylight
13 Dec - 16:09:26 10° W 16:15:04 34° NW 16:20:53 10° NNE daylight
13 Dec - 17:56:03 10° NW 18:00:19 18° N 18:04:36 10° NNE visible
13 Dec - 19:41:33 10° NNW 19:46:04 19° NNE 19:50:28 10° ENE visible
13 Dec - 21:25:04 10° NNW 21:31:06 41° NE 21:36:46 10° ESE visible
13 Dec - 23:08:30 10° NW 23:14:38 55° WSW 23:20:19 10° SSE night (unlit)
14 Dec - 00:56:03 10° W 00:56:28 10° W 00:56:52 10° W night (unlit)
14 Dec - 12:13:44 10° ESE 12:15:18 11° E 12:16:52 10° E daylight
14 Dec - 13:51:17 10° SSW 13:57:12 57° ESE 14:03:26 10° NE daylight
14 Dec - 15:34:56 10° WSW 15:40:46 41° NW 15:46:51 10° NNE daylight
14 Dec - 17:21:19 10° WNW 17:25:48 20° NNW 17:30:19 10° NNE visible
14 Dec - 19:07:17 10° NNW 19:11:33 18° N 19:15:45 10° NE visible
14 Dec - 20:51:02 10° NNW 20:56:48 34° NE 21:02:16 10° E visible
14 Dec - 22:34:20 10° NW 22:40:40 73° WSW 22:46:29 10° SSE night (unlit)
15 Dec - 00:19:32 10° WNW 00:22:48 15° W 00:25:57 10° SW night (unlit)
15 Dec - 13:17:36 10° S 13:23:16 43° ESE 13:29:14 10° NE daylight
15 Dec - 15:00:31 10° WSW 15:06:32 51° NW 15:12:48 10° NNE daylight
15 Dec - 16:46:33 10° WNW 16:51:20 22° NNW 16:56:08 10° NNE visible
15 Dec - 18:32:55 10° NW 18:37:01 17° N 18:41:04 10° NE visible
15 Dec - 20:16:58 10° NNW 20:22:27 29° NNE 20:27:41 10° E visible
15 Dec - 22:00:14 10° NW 22:06:37 87° NE 22:12:30 10° SE visible
15 Dec - 23:44:40 10° WNW 23:49:04 21° WSW 23:53:16 10° SSW night (unlit)
16 Dec - 12:44:08 10° S 12:49:24 32° ESE 12:54:56 10° NE daylight
16 Dec - 14:26:13 10° SW 14:32:20 64° NW 14:38:45 10° NNE daylight
16 Dec - 16:11:48 10° WNW 16:16:52 24° NNW 16:22:00 10° NNE visible
16 Dec - 17:58:26 10° NW 18:02:28 17° N 18:06:28 10° NE visible
16 Dec - 19:42:52 10° NNW 19:48:03 25° NNE 19:53:01 10° E visible
16 Dec - 21:26:10 10° NW 21:32:30 69° NE 21:38:23 10° SE visible
16 Dec - 23:10:08 10° NW 23:15:18 28° WSW 23:20:09 10° SSW night (unlit)
17 Dec - 12:10:54 10° SSE 12:15:36 24° ESE 12:20:29 10° ENE daylight
17 Dec - 13:52:04 10° SW 13:58:13 82° NW 14:04:41 10° NE daylight
17 Dec - 15:37:07 10° W 15:42:28 28° NNW 15:47:55 10° NNE daylight
17 Dec - 17:23:50 10° NW 17:27:55 17° N 17:31:58 10° NE visible
17 Dec - 19:08:45 10° NNW 19:13:36 22° NNE 19:18:18 10° ENE visible
17 Dec - 20:52:06 10° NNW 20:58:20 54° NE 21:04:08 10° ESE visible
17 Dec - 22:35:47 10° NW 22:41:28 38° WSW 22:46:44 10° S night (unlit)
18 Dec - 11:38:01 10° SE 11:41:50 17° ESE 11:45:46 10° ENE daylight
18 Dec - 13:18:02 10° SSW 13:24:08 79° SE 13:30:35 10° NE daylight
18 Dec - 15:02:30 10° W 15:08:06 33° NW 15:13:51 10° NNE daylight
18 Dec - 16:49:10 10° NW 16:53:23 18° N 16:57:36 10° NNE visible
18 Dec - 18:34:35 10° NNW 18:39:07 20° NNE 18:43:33 10° ENE visible
18 Dec - 20:18:03 10° NNW 20:24:06 43° NE 20:29:46 10° ESE visible
18 Dec - 22:01:32 10° NW 22:07:34 51° WSW 22:13:08 10° S visible
19 Dec - 11:05:51 10° ESE 11:08:09 12° E 11:10:29 10° ENE daylight
19 Dec - 12:44:09 10° SSW 12:50:08 61° ESE 12:56:27 10° NE daylight
19 Dec - 14:27:57 10° WSW 14:33:48 40° NW 14:39:49 10° NNE daylight
19 Dec - 16:14:25 10° WNW 16:18:52 19° NNW 16:23:19 10° NNE visible
19 Dec - 18:00:19 10° NNW 18:04:37 18° NNE 18:08:49 10° NE visible
19 Dec - 19:44:00 10° NNW 19:49:49 35° NE 19:55:17 10° ESE visible
19 Dec - 21:27:21 10° NW 21:33:36 68° WSW 21:39:20 10° SSE visible
19 Dec - 23:12:52 10° WNW 23:15:39 13° W 23:18:21 10° SW night (unlit)
20 Dec - 12:10:25 10° S 12:16:12 46° ESE 12:22:15 10° NE daylight
20 Dec - 13:53:31 10° WSW 13:59:32 49° NW 14:05:46 10° NNE daylight
20 Dec - 15:39:40 10° WNW 15:44:22 21° NNW 15:49:07 10° NNE daylight
20 Dec - 17:25:58 10° NNW 17:30:05 17° N 17:34:08 10° NE visible
20 Dec - 19:09:57 10° NNW 19:15:29 30° NNE 19:20:43 10° E visible
20 Dec - 20:53:14 10° NW 20:59:34 88° SW 21:05:23 10° SSE visible
20 Dec - 22:37:49 10° WNW 22:41:57 19° WSW 22:45:52 10° SSW night (unlit)
21 Dec - 11:36:53 10° S 11:42:19 34° ESE 11:47:59 10° NE daylight
21 Dec - 13:19:12 10° SW 13:25:20 61° NW 13:31:43 10° NNE daylight
21 Dec - 15:04:54 10° WNW 15:09:55 24° NNW 15:14:58 10° NNE daylight
21 Dec - 16:51:31 10° NW 16:55:32 17° N 16:59:31 10° NE visible
21 Dec - 18:35:52 10° NNW 18:41:05 26° NNE 18:46:04 10° E visible
21 Dec - 20:19:09 10° NW 20:25:29 72° NE 20:31:18 10° SE visible
21 Dec - 22:03:13 10° NW 22:08:11 26° WSW 22:12:50 10° SSW visible
